Wind_Speed
38 38 39 39 39 39 40 40 39 39 39 39 39 40 40 39 39 40 40 40 40 41 41 41 42 42 42 43 44 44 45 46 47 48 49 50 50 51 52 53 53 54
39 39 39 39 39 39 40 40 40 40 40 40 41 41 41 41 41 41 41 41 41 41 42 42 42 42 43 43 44 45 46 47 48 49 49 50 51 52 53 53 54 55
39 39 39 39 39 40 40 41 41 41 42 42 42 43 43 43 43 43 44 43 43 43 43 43 43 43 43 44 45 46 46 47 48 49 50 50 51 52 53 54 55 56
38 39 39 40 41 41 42 42 42 42 43 43 44 44 45 45 45 46 46 46 45 44 44 44 44 44 44 45 45 46 47 47 48 49 50 51 52 53 54 55 56 57
40 40 41 43 43 43 43 42 43 44 44 45 45 46 46 46 47 47 47 47 46 45 45 45 45 44 45 45 46 46 47 48 49 50 51 52 53 54 55 56 58 59
42 43 44 44 44 44 43 43 44 46 46 47 47 47 47 47 47 47 48 48 47 46 46 45 45 45 45 45 45 46 47 48 49 50 52 52 54 55 56 58 59 61
45 45 45 46 46 45 45 45 46 47 48 48 48 47 47 47 47 48 48 48 47 47 46 46 45 44 44 45 45 45 47 48 50 51 52 53 55 56 57 59 60 62
46 46 47 47 47 46 46 46 47 47 48 49 49 48 48 49 49 49 49 48 47 46 45 45 45 44 44 44 44 45 47 48 50 51 52 54 55 56 58 60 62 63
44 45 46 47 47 46 46 47 47 48 49 50 50 50 50 50 50 50 49 47 46 45 44 44 44 44 44 44 44 45 47 48 50 51 52 53 55 57 60 61 62 64
43 44 45 46 46 47 47 48 48 49 50 50 50 50 50 51 50 49 48 46 45 44 43 43 43 44 44 44 44 45 47 48 49 51 52 54 57 59 61 62 63 64
44 44 45 46 47 47 47 48 49 49 49 48 48 48 48 48 48 47 46 45 45 44 43 44 44 44 44 45 45 45 47 48 50 52 54 57 59 61 63 64 64 66
45 44 44 44 45 45 46 47 47 46 46 45 45 45 46 46 45 45 45 45 45 44 44 45 44 44 45 45 45 45 47 50 51 53 55 57 59 62 64 65 65 66
46 44 43 43 42 43 43 44 44 44 43 43 43 43 43 44 44 44 44 44 44 44 45 45 46 46 45 44 44 45 48 50 51 53 54 56 58 61 62 63 63 64
47 45 43 41 40 40 41 42 42 43 43 42 42 42 42 42 43 43 43 43 44 44 44 45 46 46 45 45 46 47 48 49 51 53 55 56 58 60 61 62 64 65
47 46 43 41 40 40 40 41 42 42 42 42 42 42 42 42 42 42 42 42 43 43 44 45 45 46 46 46 47 49 49 50 52 54 56 57 58 60 61 61 62 63
46 45 44 42 41 41 41 41 42 42 42 42 42 43 43 43 42 42 41 41 41 42 43 44 45 46 45 46 48 51 52 52 53 54 56 58 59 60 60 59 60 60
45 44 43 43 43 43 43 42 43 42 42 42 42 43 43 43 42 42 41 41 41 42 43 44 45 45 45 47 50 51 53 53 54 55 58 59 60 60 60 60 60 60
45 44 43 44 44 44 44 44 44 43 42 43 43 43 43 42 41 41 41 41 41 42 43 44 44 45 46 49 50 51 53 54 55 57 59 60 61 61 62 61 61 63
46 44 44 44 45 45 45 45 44 43 43 44 43 43 42 42 41 41 42 42 42 43 44 44 44 46 47 49 50 51 53 54 56 58 59 61 62 63 63 63 64 67
46 45 45 45 45 45 45 45 45 44 44 44 43 43 42 42 42 43 43 43 43 44 45 45 46 47 49 50 51 52 54 55 57 59 60 61 62 63 64 66 66 67
47 46 45 45 46 46 46 46 46 45 45 44 43 43 42 43 43 43 44 44 44 45 46 46 48 48 50 52 54 55 56 57 58 60 60 61 63 65 66 67 66 66
46 45 45 46 46 47 47 47 47 46 45 45 44 44 44 44 44 44 45 45 45 46 47 49 51 51 52 55 57 58 58 59 60 61 62 64 66 67 66 64 64 66
46 46 46 47 47 48 48 48 48 47 46 46 46 45 45 45 45 46 46 46 47 48 50 51 53 55 56 57 59 60 60 61 63 64 66 66 65 63 63 64 67 70
47 46 47 48 49 50 50 50 50 49 48 48 47 47 47 47 47 47 47 48 49 50 52 54 56 57 59 60 62 63 64 65 66 67 67 66 64 64 66 70 72 74
48 48 48 49 51 52 52 52 51 51 50 48 48 48 48 48 48 48 49 51 51 53 54 56 58 59 61 62 64 66 66 67 67 68 67 67 67 69 71 73 73 74
51 51 51 52 53 54 54 54 53 52 50 49 48 49 49 49 50 50 52 53 54 55 56 58 60 61 62 64 65 66 67 68 69 69 69 69 70 71 72 73 73 74
Wind_Direction
281 282 283 283 283 283 284 284 285 285 286 285 285 284 284 284 284 285 286 287 288 288 288 287 287 286 284 283 282 282 282 282 282 283 284 285 286 287 287 288 288 288
281 282 282 283 283 284 284 285 285 286 285 284 283 283 282 283 283 284 286 287 288 288 288 287 286 285 284 283 282 282 281 282 282 284 285 286 286 287 287 287 287 287
279 281 281 282 283 283 284 284 285 285 284 283 282 282 282 282 283 285 286 286 287 287 286 286 285 284 283 283 282 282 282 282 283 284 285 286 286 286 287 286 287 287
278 279 280 281 282 282 282 283 283 282 282 281 281 281 282 283 284 285 286 286 286 285 285 284 284 284 283 283 283 283 283 283 284 285 285 286 286 286 286 287 287 288
278 278 279 279 280 280 280 280 280 280 280 280 280 281 282 283 284 285 286 286 285 283 283 283 283 283 284 284 284 285 285 285 286 286 286 286 286 287 287 288 288 288
278 278 279 279 279 279 279 279 279 280 280 281 281 281 282 283 284 285 285 285 284 282 282 281 282 282 283 284 285 285 286 286 286 286 286 287 287 288 288 289 289 289
278 278 279 279 279 279 279 280 280 281 281 281 281 282 282 283 284 285 284 284 283 282 281 281 281 281 282 283 284 285 285 285 286 286 287 287 288 289 289 289 289 290
277 277 277 278 278 279 280 280 280 280 281 281 282 282 283 284 284 284 284 283 282 282 281 280 280 280 281 282 282 283 284 284 285 287 288 288 289 290 290 290 291 292
277 276 276 277 278 279 279 279 279 279 280 280 281 281 282 283 283 283 283 282 282 281 279 278 278 278 279 280 281 282 283 285 286 288 289 290 291 292 292 293 294 295
277 276 276 277 278 278 278 278 278 278 279 279 280 281 282 282 283 283 282 282 281 280 278 277 277 277 278 280 281 282 284 286 288 289 291 293 293 294 294 294 295 295
277 277 277 277 278 278 278 278 278 278 279 279 280 281 281 282 282 282 282 282 282 281 280 280 280 280 281 281 282 284 286 288 290 292 293 294 294 294 294 294 294 295
278 278 278 278 278 277 277 277 277 278 278 279 280 280 280 281 282 282 282 283 283 284 284 284 284 284 284 284 285 286 287 289 291 292 293 293 294 295 294 294 295 296
279 279 278 278 276 276 275 275 276 277 278 278 278 278 279 280 280 280 281 282 283 285 285 286 287 287 287 287 287 286 286 287 289 291 292 293 294 295 295 295 296 295
278 278 278 277 275 274 273 274 275 276 276 276 277 277 277 277 277 278 279 281 282 283 284 285 286 288 289 289 287 286 286 288 290 291 292 293 294 295 296 297 297 296
275 277 278 277 275 273 272 272 272 273 273 274 275 275 276 275 276 277 278 280 282 283 284 285 286 287 289 289 288 287 287 288 289 290 292 293 295 296 297 298 299 299
274 276 277 277 275 273 272 272 271 271 271 272 274 274 275 276 276 277 279 281 283 285 287 288 288 289 290 289 288 288 288 289 290 291 291 292 293 295 296 297 299 300
274 276 276 276 275 274 273 273 272 272 273 274 274 274 274 275 276 278 281 283 286 287 288 289 290 290 289 287 287 288 288 290 291 290 290 290 291 293 294 295 297 298
275 275 275 274 273 273 273 273 273 273 274 275 274 274 274 274 276 279 282 284 286 287 288 289 290 290 288 287 287 287 287 288 289 289 290 290 291 292 293 294 296 295
276 276 274 272 271 271 271 272 273 273 274 274 274 273 274 275 277 279 281 283 285 286 287 288 289 289 288 287 286 286 285 286 287 287 288 289 290 291 293 294 294 294
276 275 273 271 270 270 271 271 272 272 273 273 273 273 274 276 278 279 281 282 284 285 286 287 287 287 287 285 284 284 284 284 285 286 287 289 291 292 293 294 295 295
276 274 272 271 271 271 271 271 272 272 272 272 272 273 275 276 278 279 281 282 284 285 286 287 287 286 286 285 284 284 285 286 287 288 289 290 292 293 294 296 296 294
274 273 272 271 271 271 271 272 272 272 272 271 272 274 275 276 278 279 281 282 284 286 286 287 287 286 286 285 285 285 286 287 288 289 291 292 293 294 295 294 291 288
274 272 272 271 271 271 272 272 272 272 271 271 273 274 275 276 278 280 281 282 284 285 286 286 286 286 287 286 286 287 288 289 290 291 292 294 294 293 290 288 286 286
275 274 273 272 272 272 272 272 272 272 271 272 273 273 275 276 278 279 281 282 283 283 284 285 285 286 286 287 287 288 289 290 291 293 294 294 292 289 287 287 286 286
276 275 274 273 272 272 272 272 271 271 271 272 272 273 275 276 277 279 280 281 281 282 283 283 284 285 286 287 287 288 289 291 292 293 293 293 291 289 288 287 286 286
278 277 275 274 273 273 272 271 271 271 271 272 273 274 275 276 278 279 280 280 281 281 282 283 284 285 286 287 288 289 291 292 293 293 292 291 290 289 288 287 287 287
Height
5781 5780 5780 5779 5778 5777 5776 5775 5775 5774 5773 5772 5771 5770 5769 5767 5766 5765 5763 5763 5762 5760 5759 5758 5757 5756 5755 5754 5752 5751 5750 5749 5748 5747 5746 5744 5743 5741 5740 5738 5736 5734
5776 5776 5775 5774 5773 5773 5771 5770 5770 5769 5769 5767 5766 5765 5763 5762 5761 5760 5759 5758 5757 5755 5754 5753 5752 5750 5749 5748 5747 5746 5745 5744 5743 5742 5740 5739 5737 5736 5734 5732 5730 5728
5771 5771 5770 5769 5768 5767 5766 5765 5765 5764 5763 5762 5761 5760 5759 5757 5756 5755 5753 5753 5752 5750 5749 5747 5746 5745 5744 5743 5742 5741 5740 5739 5737 5736 5734 5733 5731 5730 5728 5726 5724 5722
5766 5766 5765 5764 5763 5762 5761 5760 5760 5759 5758 5757 5756 5755 5753 5752 5751 5750 5748 5747 5746 5745 5743 5742 5741 5740 5739 5738 5737 5735 5734 5733 5732 5730 5728 5727 5726 5724 5722 5720 5718 5716
5761 5761 5760 5759 5758 5757 5756 5755 5754 5753 5752 5751 5750 5749 5748 5747 5746 5744 5743 5742 5741 5739 5738 5736 5735 5734 5733 5732 5731 5730 5729 5727 5726 5724 5723 5721 5720 5718 5716 5714 5712 5710
5757 5756 5754 5753 5753 5751 5750 5750 5748 5747 5746 5745 5744 5743 5742 5741 5740 5738 5737 5736 5735 5733 5732 5730 5729 5728 5727 5726 5725 5724 5723 5722 5720 5719 5717 5716 5714 5712 5710 5708 5706 5704
5751 5750 5749 5748 5747 5746 5745 5744 5743 5741 5740 5739 5738 5738 5736 5735 5734 5733 5731 5730 5728 5727 5726 5724 5723 5723 5721 5720 5719 5719 5717 5716 5714 5713 5711 5710 5708 5706 5704 5702 5700 5697
5746 5745 5744 5743 5741 5740 5739 5738 5737 5735 5734 5733 5732 5732 5731 5729 5728 5727 5725 5724 5722 5721 5720 5718 5717 5717 5716 5715 5714 5713 5711 5710 5708 5707 5706 5704 5702 5700 5698 5696 5694 5691
5740 5739 5738 5737 5736 5734 5733 5732 5730 5729 5728 5728 5727 5725 5725 5723 5722 5720 5719 5718 5716 5715 5714 5712 5712 5711 5710 5709 5708 5707 5705 5704 5703 5701 5700 5698 5696 5694 5692 5689 5688 5685
5734 5733 5732 5731 5730 5728 5727 5725 5724 5723 5722 5721 5721 5720 5718 5717 5715 5714 5713 5711 5710 5709 5708 5707 5706 5705 5704 5703 5702 5701 5700 5698 5697 5695 5694 5692 5690 5688 5685 5683 5681 5679
5728 5727 5726 5725 5723 5722 5720 5719 5718 5717 5716 5715 5714 5713 5712 5711 5710 5709 5707 5706 5704 5703 5702 5701 5700 5699 5698 5697 5696 5695 5694 5693 5691 5690 5688 5686 5684 5682 5679 5677 5675 5672
5722 5721 5720 5718 5717 5716 5715 5714 5713 5712 5711 5710 5709 5707 5706 5705 5704 5703 5702 5700 5699 5698 5697 5696 5695 5693 5692 5691 5690 5689 5688 5686 5685 5683 5681 5680 5678 5675 5673 5671 5668 5665
5714 5714 5713 5712 5711 5711 5709 5708 5707 5706 5705 5704 5703 5702 5701 5700 5698 5697 5696 5695 5694 5693 5692 5690 5689 5688 5686 5685 5684 5683 5681 5680 5678 5677 5675 5673 5671 5669 5666 5664 5662 5659
5707 5707 5707 5706 5705 5705 5704 5702 5701 5700 5699 5698 5697 5696 5695 5694 5693 5692 5690 5689 5688 5687 5686 5684 5683 5682 5681 5679 5678 5676 5675 5673 5672 5670 5668 5666 5664 5662 5660 5658 5655 5652
5701 5700 5700 5700 5699 5698 5697 5696 5696 5694 5693 5692 5691 5690 5689 5688 5687 5686 5684 5683 5682 5681 5680 5679 5677 5676 5675 5674 5672 5671 5669 5667 5665 5664 5662 5660 5658 5655 5653 5651 5649 5647
5695 5694 5693 5693 5692 5692 5691 5690 5689 5688 5687 5686 5685 5684 5683 5682 5680 5679 5678 5678 5677 5675 5674 5672 5671 5669 5668 5667 5666 5665 5663 5661 5659 5657 5655 5653 5651 5648 5646 5644 5642 5641
5688 5688 5687 5686 5686 5685 5684 5684 5683 5682 5681 5680 5679 5678 5677 5676 5674 5673 5672 5671 5670 5669 5668 5666 5665 5663 5662 5661 5659 5658 5657 5655 5653 5650 5648 5646 5644 5642 5639 5637 5636 5634
5681 5681 5680 5680 5679 5678 5678 5677 5677 5676 5675 5674 5673 5672 5671 5670 5669 5668 5666 5665 5664 5663 5661 5660 5658 5657 5656 5654 5653 5652 5650 5648 5646 5643 5641 5639 5637 5635 5632 5631 5629 5626
5674 5674 5674 5673 5672 5672 5672 5671 5671 5670 5669 5667 5666 5665 5664 5664 5663 5661 5660 5659 5658 5656 5655 5654 5652 5651 5650 5648 5647 5646 5644 5641 5639 5636 5634 5632 5630 5628 5626 5624 5621 5618
5668 5667 5667 5666 5666 5666 5665 5665 5664 5663 5662 5661 5660 5659 5658 5657 5656 5655 5653 5652 5651 5650 5648 5647 5646 5645 5644 5642 5640 5638 5636 5634 5632 5630 5628 5625 5623 5621 5618 5616 5613 5609
5660 5660 5660 5659 5659 5659 5659 5658 5657 5656 5655 5654 5653 5652 5651 5650 5649 5648 5647 5645 5644 5643 5641 5640 5639 5638 5637 5635 5633 5631 5629 5627 5625 5623 5621 5618 5616 5613 5610 5607 5604 5601
5653 5653 5653 5652 5652 5652 5652 5651 5650 5649 5648 5647 5647 5646 5644 5643 5642 5641 5639 5638 5637 5636 5634 5633 5631 5630 5630 5628 5626 5624 5623 5620 5618 5615 5613 5610 5607 5604 5602 5599 5596 5592
5646 5646 5646 5645 5645 5645 5644 5644 5643 5642 5641 5640 5639 5638 5637 5636 5635 5633 5632 5631 5630 5628 5627 5626 5624 5622 5622 5621 5619 5617 5615 5613 5610 5607 5604 5601 5599 5596 5594 5591 5587 5583
5640 5639 5639 5639 5638 5638 5637 5636 5636 5635 5634 5633 5632 5631 5630 5629 5627 5626 5625 5624 5622 5621 5619 5618 5616 5615 5614 5612 5610 5609 5607 5604 5601 5599 5596 5593 5591 5588 5585 5582 5578 5574
5633 5632 5632 5632 5631 5630 5629 5629 5628 5627 5626 5625 5624 5623 5622 5621 5620 5619 5617 5616 5615 5613 5612 5610 5608 5607 5606 5604 5602 5600 5598 5595 5593 5591 5588 5585 5583 5579 5576 5572 5568 5565
5626 5625 5625 5624 5623 5623 5622 5621 5620 5619 5618 5618 5616 5615 5615 5613 5612 5611 5610 5609 5607 5606 5604 5602 5600 5599 5597 5596 5594 5592 5590 5587 5584 5582 5579 5576 5573 5570 5567 5563 5559 5556